Tracking 27107 objects as of 20-Mar-2023
HD Live streaming from Space Station
objects crossing your sky now

PSLV DEB

Track PSLV DEB now!
10-day predictions


NORAD ID: 27127
Int'l Code: 2001-049BX
Perigee: 532.2 km
Apogee: 571.2 km
Inclination: 97.6 °
Period: 95.5 minutes
Semi major axis: 6922 km
RCS: 0.304 m2 (medium)
Launch date: October 22, 2001
Source: India (IND)
Launch site: SRIHARIKOTA (SRI)

Note: This is SATELLITE DEBRIS
Your satellite tracking list
Your tracking list is empty




NASA's NSSDC Master Catalog

Two Line Element Set (TLE):
1 27127U 01049BX  23078.87642946  .00021511  00000-0  14148-2 0  9999
2 27127  97.6435  56.1193 0028203  86.8341 331.0388 15.07258270483014
Source of the keplerian elements: AFSPC